Location: Dodgeville, WI 53533, USA
(43.0344°N, 90.0900°W)
Time: 23:42:38
(UTC-06:00)

ISS - Pass Details

Date: 24 January 2021
Orbit: 417 x 422 km, 51.6° (Epoch: 05 March)

Event Time Altitude Azimuth Distance (km) Brightness Sun altitude
Rises 17:54:49 0° 262° (W) 2,364 2.2 -9.7°
Reaches altitude 10° 17:57:02 10° 272° (W) 1,503 0.4 -10.1°
Maximum altitude 18:00:08 33° 338° (NNW) 740 -2.5 -10.6°
Enters shadow 18:02:45 13° 41° (NE) 1,336 -1.7 -11.1°
